Flag for Canada Weather past 2 weeks in Richmond, British Columbia, Canada

Now
66 °F

Clear.


Feels Like: 66 °F
Forecast: 62 / 77 °F
Wind: 3 mph from East

Location: Vancouver International Air-Port

Current Time: Jul 30, 2015 at 1:32:50 AM

Latest Report: Jul 30, 2015 at 1:00 AM


Visibility: 15 mi

Pressure: 30.10 "Hg

Humidity: 78%

Dew point: 59 °F

Location of RichmondLocation

Historic Weather in Richmond — Graph

°F

Richmond temperature yesterday

Maximum temperature yesterday: 75 °F (at 4:00 PM)
Minimum temperature yesterday: 59 °F (at 6:00 AM)
Average temperature yesterday: 68 °F

Past Weeks' High & Low Weather Summary

 TemperatureHumidityPressure
High81 °F (Jul 19, 6:00 PM)94% (Jul 24, 10:00 AM)30.28 "Hg (Jul 24, 10:00 AM)
Low55 °F (Jul 27, 3:00 AM)46% (Jul 16, 7:00 PM)29.85 "Hg (Jul 22, 8:00 PM)
Average65 °F72%30.03 "Hg
* Reported Midnight between Jul 14 and Jul 15 — Midnight between Jul 29 and Jul 30, Richmond, Weather by CustomWeather, © 2015

Note: Actual official high and low records may vary slightly from our data, if they occured in-between our weather recording intervals... More about our weather records

Advertising

Richmond weather history for previous 24 hours

 ConditionsComfort  
Time TempWeatherWind HumidityBarometerVisibility
12:00 AM
Thu, Jul 30
66 °FClear.2 mph73%30.10 "Hg20 mi
11:00 PM
Wed, Jul 29
68 °FClear.5 mph73%30.10 "Hg20 mi
10:00 PM68 °FClear.2 mph78%30.09 "Hg30 mi
9:00 PM70 °FSunny.5 mph69%30.09 "Hg30 mi
8:00 PM72 °FSunny.3 mph78%30.09 "Hg30 mi
7:00 PM73 °FSunny.3 mph65%30.10 "Hg30 mi
6:00 PM73 °FSunny.6 mph69%30.12 "Hg30 mi
5:00 PM73 °FSunny.8 mph65%30.13 "Hg30 mi
4:00 PM75 °FSunny.8 mph54%30.14 "Hg30 mi
3:00 PM73 °FSunny.7 mph57%30.16 "Hg25 mi
2:00 PM73 °FSunny.8 mph57%30.18 "Hg30 mi
1:00 PM72 °FSunny.9 mph61%30.18 "Hg30 mi
12:00 PM72 °FPassing clouds.9 mph61%30.19 "Hg30 mi
11:00 AM70 °FPassing clouds.8 mph60%30.20 "Hg30 mi
10:00 AM68 °FPassing clouds.7 mph69%30.21 "Hg30 mi
9:00 AM68 °FPartly sunny.3 mph73%30.22 "Hg30 mi
8:00 AM66 °FBroken clouds.2 mph73%30.22 "Hg30 mi
7:00 AM63 °FOvercast.No wind83%30.21 "Hg30 mi
6:00 AM59 °FPartly cloudy.No wind88%30.20 "Hg30 mi
5:00 AM61 °FPartly cloudy.3 mph88%30.19 "Hg30 mi
4:00 AM61 °FPassing clouds.3 mph88%30.19 "Hg15 mi
3:00 AM61 °FPassing clouds.3 mph83%30.18 "Hg15 mi
2:00 AM61 °FPassing clouds.8 mph83%30.19 "Hg20 mi
1:00 AM63 °FPassing clouds.6 mph77%30.19 "Hg20 mi
Weather by CustomWeather, © 2015

See weather overviewHow to use our weather pages